Temp
38 38 38 38 39 39 39 39 39 40 42 43 44 46 50 52 58 57 59 61 61 61 59 59 62 63 61 60 60 60 59 57 55 53 54 56 59 60 60 60 61 60 57
38 37 37 38 38 37 37 37 38 38 40 41 43 44 46 47 51 60 59 62 60 60 60 58 59 60 61 60 60 59 59 59 57 52 54 55 58 60 61 59 60 61 60
37 37 36 36 36 36 36 36 36 36 37 38 40 41 41 43 44 48 58 60 60 60 61 59 59 59 57 58 58 58 59 59 60 57 54 57 57 59 59 58 58 56 53
36 35 35 35 36 36 36 35 35 35 35 35 37 38 38 40 40 41 46 53 58 61 62 61 61 60 59 59 59 58 59 59 58 57 54 56 57 57 58 53 48 48 46
34 34 34 35 36 36 35 35 35 34 34 34 34 35 35 38 38 37 44 49 51 58 57 56 56 57 52 54 59 60 59 58 57 57 55 56 56 55 55 53 51 42 41
33 33 33 34 34 34 34 34 33 33 33 33 32 33 33 35 36 36 39 38 37 43 49 46 45 44 42 41 41 43 54 57 56 56 56 55 56 56 56 52 42 41 42
32 32 33 32 31 31 32 33 31 30 30 30 30 31 32 33 35 35 35 34 34 33 34 38 41 41 41 39 38 38 36 36 40 54 56 55 55 56 53 49 46 44 43
30 30 31 30 30 30 30 30 29 30 29 28 28 30 31 32 33 34 34 34 32 31 32 32 34 34 37 39 38 35 33 33 34 35 36 34 34 39 49 53 50 38 35
30 29 30 29 27 28 27 27 29 28 28 27 28 28 29 30 34 33 31 31 31 30 31 32 32 32 34 36 35 33 32 30 34 35 34 34 34 36 40 44 39 39 32
31 30 30 30 27 25 25 26 26 27 25 26 26 27 30 29 33 34 32 29 28 29 30 30 32 32 33 33 31 31 29 27 29 30 29 30 31 32 34 35 42 42 33
32 30 29 29 28 27 26 26 25 25 25 25 25 26 27 29 30 34 33 30 28 28 28 28 30 32 32 32 32 29 28 28 28 28 27 27 28 29 30 32 33 37 34
30 30 28 28 28 28 25 25 25 24 23 23 24 25 27 28 31 32 33 32 32 28 27 28 29 31 31 31 29 30 30 28 28 26 26 25 25 26 28 29 31 32 33
29 28 27 26 26 26 25 25 25 25 24 23 23 23 25 27 28 31 31 31 30 28 29 30 30 30 30 29 30 29 27 26 26 25 24 24 25 26 28 29 31 31 30
28 28 28 28 26 26 26 26 25 24 23 23 23 22 24 26 26 27 27 27 27 26 26 26 27 28 27 27 27 28 28 27 26 25 25 25 26 26 26 28 27 28 28
29 28 27 28 26 26 26 26 26 25 26 23 24 24 23 22 25 29 28 25 25 25 24 24 23 23 23 24 25 25 26 26 25 26 25 25 25 26 25 26 27 27 25
27 27 26 26 26 26 26 25 29 29 29 29 30 28 25 28 29 29 29 28 28 26 21 19 19 19 19 20 21 23 24 25 25 25 25 25 24 24 24 25 26 25 24
24 26 25 25 24 23 22 21 18 21 27 27 28 28 28 27 26 26 26 25 26 24 18 17 17 18 19 20 20 21 21 23 25 24 24 24 24 24 23 23 24 25 23
18 19 18 18 17 17 15 15 12 13 12 13 19 24 26 25 25 24 23 20 15 18 16 15 14 16 17 18 19 19 20 21 21 21 21 22 22 23 23 22 23 22 22
17 13 12 13 16 15 17 16 14 10 6 5 7 13 13 23 22 21 20 12 10 11 14 13 13 13 14 15 15 16 17 17 17 18 19 19 19 21 20 22 22 21 21
18 18 17 17 17 17 17 17 18 16 15 15 11 9 12 13 7 6 8 2 8 9 11 12 11 10 10 11 11 12 12 12 12 14 16 17 17 18 17 19 20 19 19
17 18 14 17 16 16 16 16 16 15 14 15 16 15 10 11 6 5 7 4 4 7 5 8 7 6 7 7 9 7 7 6 7 9 11 14 14 15 17 17 18 19 19
17 18 19 16 17 14 15 16 13 12 13 12 12 14 11 12 9 6 4 -1 -2 3 5 1 2 4 7 2 1 -4 0 2 4 6 8 10 12 11 12 14 14 14 17
16 13 15 16 14 11 9 11 7 4 5 2 6 9 9 5 7 7 5 -4 -1 -2 -2 -3 -6 -3 -2 -8 -7 -6 -5 -4 -2 4 5 7 11 10 9 10 10 10 10
13 10 14 12 11 11 7 7 9 10 9 4 -5 -3 -2 -1 -4 -3 -1 -3 -5 -9 -10 -8 -5 -4 -4 -10 -13 -6 -2 -7 -4 3 3 4 9 10 7 9 8 5 7
8 6 6 5 1 1 1 5 7 6 7 7 7 5 2 -2 -2 -5 -6 -1 -1 -8 -5 -7 -6 -6 -7 -8 -8 -8 -11 -7 -5 -1 4 4 5 4 5 6 5 8 6
8 7 5 4 3 2 0 -1 -1 0 3 6 6 7 7 7 7 -1 -2 -4 -2 -3 -4 -5 -5 -2 -6 -5 -4 -4 -8 -8 -7 -6 -5 2 1 1 1 -3 -1 2 4
MSLP
1015.55 1015.42 1015.22 1014.80 1014.37 1013.56 1012.72 1012.08 1011.19 1010.16 1009.01 1007.95 1006.98 1005.65 1004.11 1002.88 1000.81 1000.82 1000.80 1000.55 1000.70 1000.77 1001.30 1001.47 1001.33 1001.72 1002.39 1003.07 1003.38 1004.15 1004.85 1005.28 1005.87 1006.65 1006.97 1007.20 1007.31 1007.76 1008.30 1008.55 1008.97 1009.38 1010.12
1016.29 1016.42 1016.09 1015.33 1014.45 1013.70 1013.00 1012.42 1011.48 1010.56 1009.43 1008.42 1007.27 1006.21 1004.55 1003.27 1001.35 999.63 999.65 999.45 999.82 1000.10 1000.25 1000.67 1000.97 1001.05 1001.12 1002.00 1002.64 1003.60 1004.41 1004.76 1005.04 1005.67 1006.32 1006.68 1006.94 1007.35 1007.63 1008.01 1008.51 1008.78 1009.21
1017.13 1016.73 1016.30 1015.62 1014.74 1014.03 1013.46 1012.68 1011.65 1011.00 1010.16 1008.85 1007.77 1006.82 1005.36 1004.13 1002.63 1000.91 999.36 998.82 999.01 999.21 999.50 999.74 999.79 1000.28 1000.87 1001.50 1002.20 1003.04 1003.63 1004.09 1004.39 1004.15 1005.50 1006.14 1006.55 1006.96 1007.29 1007.67 1008.08 1008.61 1009.04
1017.69 1017.01 1016.50 1015.91 1015.34 1014.57 1014.10 1013.01 1012.39 1011.75 1010.87 1009.68 1008.64 1007.84 1006.48 1005.05 1003.62 1002.33 1000.41 999.17 999.24 998.97 998.67 998.87 998.93 999.26 999.96 1000.47 1001.02 1002.03 1002.83 1003.68 1003.62 1004.02 1004.30 1005.09 1005.75 1006.29 1006.66 1007.44 1008.49 1008.75 1009.38
1018.16 1017.38 1016.96 1016.64 1015.86 1015.29 1014.51 1013.75 1013.17 1012.43 1011.53 1010.62 1009.98 1008.83 1007.26 1005.92 1004.71 1002.93 1001.17 999.56 998.18 998.74 997.62 998.23 998.44 998.40 999.05 1000.24 1000.89 1001.43 1001.79 1002.28 1002.68 1003.26 1003.85 1004.51 1005.19 1005.54 1005.93 1006.86 1007.85 1008.92 1009.59
1018.58 1017.91 1017.64 1017.22 1016.74 1016.09 1015.16 1014.55 1014.15 1013.07 1012.06 1011.79 1010.92 1009.60 1008.21 1006.72 1005.67 1003.83 1002.33 1000.90 1000.71 1000.14 998.93 998.97 998.27 999.72 1000.25 1000.45 1000.79 1000.78 1000.83 1001.33 1002.00 1002.70 1003.15 1004.12 1004.53 1004.85 1005.55 1006.42 1007.82 1009.01 1009.92
1019.07 1018.61 1018.31 1017.99 1017.47 1016.69 1016.01 1015.37 1014.80 1013.96 1013.70 1013.23 1011.85 1010.72 1009.29 1008.16 1006.46 1005.03 1004.03 1002.87 1002.26 1002.43 1001.44 1001.39 1000.91 1001.47 1001.61 1001.67 1001.11 1001.37 1001.53 1001.86 1002.03 1002.54 1003.09 1003.77 1004.21 1004.43 1005.04 1005.91 1006.84 1007.67 1008.66
1019.53 1019.40 1019.13 1018.80 1018.31 1017.87 1016.97 1016.24 1015.86 1015.37 1014.96 1014.32 1013.14 1012.07 1010.48 1009.25 1007.92 1006.67 1005.08 1004.16 1003.82 1003.56 1004.06 1003.46 1003.32 1002.90 1002.83 1002.67 1002.44 1001.62 1002.46 1003.30 1003.27 1003.44 1003.90 1004.57 1004.83 1004.72 1004.63 1004.47 1005.53 1007.42 1008.76
1020.39 1020.30 1020.09 1019.82 1019.39 1018.81 1018.07 1017.60 1016.89 1016.45 1016.02 1015.38 1014.41 1013.16 1012.18 1011.15 1009.78 1008.25 1007.28 1006.77 1006.15 1005.59 1005.44 1005.85 1004.49 1004.48 1003.63 1004.10 1003.31 1003.20 1003.38 1003.86 1004.40 1004.50 1004.82 1005.03 1005.17 1004.95 1004.74 1005.00 1006.09 1007.11 1008.74
1021.36 1021.16 1020.77 1020.50 1020.15 1019.70 1019.30 1018.89 1018.07 1017.50 1017.37 1016.63 1015.56 1014.76 1013.87 1012.67 1011.32 1009.97 1008.95 1008.23 1007.59 1007.59 1007.44 1006.36 1005.48 1005.87 1005.28 1005.10 1005.00 1005.04 1004.73 1004.83 1004.81 1005.09 1005.24 1005.36 1005.50 1005.39 1005.22 1004.65 1004.92 1005.71 1007.41
1021.87 1021.66 1021.55 1021.18 1020.81 1020.71 1020.25 1019.67 1018.96 1018.42 1018.01 1017.42 1016.66 1015.88 1015.01 1014.02 1012.82 1011.56 1010.68 1009.98 1009.71 1009.26 1008.56 1007.75 1007.82 1007.62 1006.22 1006.23 1006.59 1006.68 1006.11 1006.71 1005.78 1005.75 1005.97 1006.02 1006.38 1006.21 1005.82 1005.70 1005.22 1005.01 1006.07
1022.37 1022.18 1022.06 1021.81 1021.75 1021.43 1021.04 1020.58 1019.83 1019.25 1018.75 1018.35 1017.67 1016.96 1016.06 1015.18 1014.25 1013.19 1012.56 1012.02 1011.22 1010.55 1010.29 1009.96 1009.27 1009.19 1007.73 1008.02 1007.42 1008.27 1007.12 1007.74 1007.44 1006.58 1006.82 1007.26 1007.26 1007.40 1007.03 1006.61 1006.47 1005.97 1006.02
1023.15 1022.87 1022.57 1022.49 1022.38 1022.12 1021.78 1021.18 1020.45 1020.04 1019.53 1019.23 1018.76 1018.13 1017.24 1016.36 1015.56 1014.76 1014.05 1013.44 1013.10 1012.68 1012.35 1011.71 1010.99 1010.02 1009.78 1009.21 1008.88 1009.24 1008.54 1008.74 1008.56 1008.03 1008.01 1007.99 1008.41 1008.31 1007.88 1007.47 1007.16 1006.92 1007.11
1023.70 1023.41 1023.14 1023.01 1022.88 1022.71 1022.38 1021.89 1021.56 1021.07 1020.62 1020.19 1019.53 1019.05 1018.36 1017.40 1016.83 1016.15 1015.58 1014.92 1014.37 1013.82 1013.43 1012.78 1012.30 1011.91 1011.55 1011.08 1010.39 1010.40 1009.91 1009.63 1009.61 1009.38 1009.66 1009.26 1009.13 1008.59 1008.71 1008.24 1007.89 1008.00 1008.11
1024.32 1024.18 1023.92 1023.59 1023.28 1023.06 1022.85 1022.54 1022.35 1022.11 1021.66 1021.20 1020.58 1020.20 1019.51 1018.77 1018.24 1017.67 1016.94 1016.20 1015.82 1015.41 1014.63 1013.99 1013.59 1013.34 1013.12 1012.79 1012.25 1011.58 1011.49 1011.27 1011.19 1010.67 1010.28 1010.34 1009.78 1009.49 1009.59 1009.39 1008.83 1008.88 1008.91
1025.09 1024.79 1024.51 1024.21 1023.95 1023.67 1023.55 1023.30 1023.00 1022.82 1022.49 1022.15 1021.58 1021.12 1020.98 1020.50 1019.75 1018.92 1018.26 1017.66 1016.87 1016.32 1015.86 1015.82 1015.76 1015.63 1015.16 1014.64 1014.03 1013.43 1013.19 1013.13 1012.58 1011.99 1011.45 1010.99 1010.72 1010.59 1010.55 1010.40 1010.03 1010.05 1010.20
1025.87 1025.62 1025.41 1025.19 1025.01 1024.83 1024.57 1024.31 1024.10 1023.79 1023.38 1022.89 1022.54 1022.03 1021.70 1021.57 1020.99 1020.36 1019.83 1019.26 1018.51 1017.93 1017.75 1017.93 1017.87 1017.45 1016.89 1016.34 1015.83 1015.18 1014.74 1014.39 1013.59 1013.07 1012.71 1012.11 1011.91 1011.76 1011.45 1011.31 1011.36 1011.44 1011.44
1026.64 1026.54 1026.51 1026.35 1026.10 1025.86 1025.64 1025.41 1025.12 1024.94 1024.57 1024.12 1023.45 1023.05 1022.78 1022.51 1022.09 1021.69 1021.23 1020.64 1020.23 1019.85 1019.93 1019.87 1019.54 1019.03 1018.51 1017.98 1017.40 1016.80 1016.26 1015.74 1015.04 1014.49 1014.07 1013.71 1013.40 1013.01 1012.80 1012.73 1012.58 1012.66 1012.74
1027.58 1027.46 1027.22 1026.99 1026.75 1026.52 1026.29 1026.20 1026.02 1025.84 1025.58 1025.32 1024.82 1024.37 1024.20 1023.35 1023.08 1022.91 1022.61 1022.40 1022.37 1022.02 1021.62 1021.50 1021.21 1020.72 1020.16 1019.58 1019.10 1018.53 1017.96 1017.39 1016.70 1015.95 1015.56 1015.20 1014.89 1014.52 1014.16 1013.95 1013.87 1013.67 1013.68
1028.11 1028.01 1027.87 1027.74 1027.53 1027.37 1027.18 1027.01 1026.84 1026.64 1026.35 1026.04 1025.65 1025.43 1024.80 1024.37 1024.24 1024.21 1023.94 1023.84 1023.64 1023.44 1023.06 1022.68 1022.43 1022.12 1021.67 1021.11 1020.52 1020.00 1019.40 1018.87 1018.26 1017.66 1017.08 1016.50 1016.01 1015.50 1015.31 1015.13 1014.91 1014.81 1014.86
1028.82 1028.77 1028.64 1028.48 1028.41 1028.24 1028.04 1027.88 1027.73 1027.54 1027.28 1026.90 1026.43 1026.05 1025.64 1025.43 1025.48 1025.31 1025.09 1024.97 1024.84 1024.51 1024.11 1023.76 1023.51 1023.13 1022.71 1022.40 1021.94 1021.54 1021.07 1020.63 1020.02 1019.36 1018.52 1017.74 1017.08 1016.66 1016.28 1016.06 1015.92 1015.80 1015.68
1029.46 1029.35 1029.15 1029.09 1028.90 1028.82 1028.58 1028.33 1028.25 1028.21 1028.05 1027.74 1027.19 1026.65 1026.33 1026.19 1026.14 1026.04 1025.94 1025.93 1025.99 1025.26 1024.85 1024.71 1024.59 1024.01 1023.50 1023.47 1023.07 1022.65 1022.24 1021.76 1021.16 1020.47 1019.69 1018.85 1018.17 1017.61 1017.28 1017.07 1016.89 1016.64 1016.51
1029.85 1029.84 1029.73 1029.57 1029.47 1029.32 1029.29 1029.03 1028.95 1028.87 1028.57 1028.22 1027.71 1027.30 1026.91 1026.72 1026.53 1026.41 1026.65 1026.53 1026.03 1025.81 1025.47 1025.25 1025.23 1024.90 1024.43 1024.27 1023.87 1023.51 1023.05 1022.76 1022.31 1021.38 1020.64 1019.78 1018.97 1018.51 1018.17 1018.08 1017.86 1017.81 1017.65
1030.38 1030.41 1030.33 1030.32 1030.25 1030.08 1030.07 1029.98 1029.55 1029.18 1028.91 1028.63 1028.31 1027.79 1027.38 1027.05 1026.81 1026.59 1026.59 1026.25 1026.21 1026.15 1025.92 1025.69 1025.35 1025.09 1024.69 1024.46 1024.16 1023.62 1023.21 1022.82 1022.25 1021.53 1021.04 1020.37 1019.76 1019.31 1018.92 1018.89 1018.92 1018.85 1018.65
1030.91 1031.07 1031.13 1031.21 1031.35 1031.35 1030.94 1030.57 1030.33 1030.11 1029.75 1029.27 1028.76 1028.32 1027.72 1027.22 1026.92 1026.83 1027.02 1026.16 1025.80 1025.97 1025.57 1025.36 1025.18 1024.91 1024.70 1024.50 1024.19 1023.86 1023.51 1023.04 1022.48 1021.87 1021.28 1020.85 1020.59 1020.24 1020.02 1019.87 1019.71 1019.56 1019.58
1031.73 1031.93 1032.11 1032.15 1032.18 1031.97 1031.84 1031.77 1031.52 1031.09 1030.65 1030.09 1029.63 1029.07 1028.66 1028.26 1027.85 1027.37 1026.95 1026.34 1026.00 1025.78 1025.45 1025.08 1024.87 1024.66 1024.53 1024.39 1024.17 1023.91 1023.66 1023.36 1023.02 1022.59 1022.22 1021.69 1021.46 1021.24 1020.97 1020.83 1020.65 1020.64 1020.58
Wind_Speed
15 14 15 14 14 12 12 13 14 15 16 15 17 18 16 18 15 13 14 13 12 11 11 12 17 17 11 10 8 8 8 7 7 3 3 6 8 10 10 10 9 9 8
12 12 14 14 14 14 13 14 15 16 15 16 16 17 15 16 18 13 15 13 11 14 14 16 18 11 14 9 8 9 9 10 5 6 5 5 8 10 11 11 9 9 9
12 13 13 14 15 16 16 14 15 16 15 16 16 16 17 16 16 16 9 7 9 13 16 17 18 13 9 6 8 7 7 8 9 8 5 4 5 6 6 6 7 5 3
11 11 13 15 14 15 14 16 16 15 16 16 16 16 16 16 16 17 14 4 5 13 15 17 15 15 9 8 8 9 12 13 10 8 6 6 4 5 7 5 2 1 2
11 12 13 13 13 14 14 13 14 15 15 16 16 16 17 13 13 17 12 9 9 16 5 4 8 14 16 14 9 15 16 12 9 8 5 4 6 4 10 4 4 2 1
13 13 14 14 13 13 14 16 15 16 16 16 17 17 18 14 24 26 13 13 16 17 3 7 6 10 8 8 10 7 9 11 9 7 7 8 9 6 7 7 4 3 3
12 13 14 13 13 14 14 14 15 16 16 17 17 16 19 19 30 27 22 15 16 17 18 12 9 7 6 5 13 15 16 15 8 4 10 7 8 9 8 7 7 6 5
14 14 14 14 13 13 13 14 15 13 14 14 16 17 17 20 32 31 24 16 16 19 19 16 12 12 12 7 4 9 10 9 8 5 5 3 2 5 5 11 11 7 6
13 12 12 13 13 13 14 14 13 13 13 14 14 17 18 18 31 31 21 13 14 16 15 17 18 15 22 15 7 3 9 8 10 15 13 12 9 12 8 6 6 8 3
10 10 11 12 13 13 12 12 11 11 12 11 14 16 23 18 29 31 22 12 15 11 12 16 27 20 26 23 10 7 7 4 4 5 5 7 10 8 13 1 8 10 5
6 9 10 11 12 12 11 12 12 12 11 13 14 14 17 20 20 30 30 15 11 10 11 11 12 26 26 27 21 11 10 7 7 7 7 6 6 7 6 7 5 3 4
9 8 8 10 9 9 12 11 12 12 13 13 13 12 12 15 27 27 29 26 20 12 12 10 12 23 27 25 17 20 20 9 5 7 7 7 6 6 6 6 7 7 5
9 9 8 6 8 8 9 11 11 12 11 11 11 11 11 12 12 27 27 26 22 11 10 16 22 24 22 16 23 21 14 8 7 8 7 6 5 4 5 3 5 10 11
9 9 9 8 5 7 6 7 10 10 10 11 10 11 11 12 12 12 11 11 15 12 12 11 13 13 15 13 13 12 9 8 8 7 6 5 4 6 6 4 4 5 7
8 7 7 6 6 5 5 6 9 10 13 9 10 9 11 12 14 20 20 12 10 11 10 10 11 11 11 11 10 10 9 8 8 7 6 6 6 6 6 5 5 5 5
6 6 6 6 7 7 7 6 15 20 22 23 23 17 10 23 26 25 24 26 25 19 11 11 11 11 11 11 10 9 9 9 7 7 7 6 7 7 6 6 6 6 7
7 8 7 8 7 7 7 6 6 9 18 21 23 23 25 24 25 25 23 22 25 17 10 10 10 10 10 10 10 9 8 8 9 8 7 7 6 6 6 6 6 6 7
7 10 6 6 6 6 5 5 4 5 6 7 11 17 20 22 24 25 23 16 11 14 10 10 10 10 10 10 9 9 9 8 8 8 7 7 6 5 5 5 6 6 5
5 3 4 4 5 6 6 5 4 3 2 2 4 5 7 18 19 20 20 8 8 8 8 9 8 9 9 9 9 8 8 8 9 8 7 6 5 4 4 4 5 7 6
7 9 8 6 6 6 6 7 7 7 7 6 4 4 4 5 5 6 6 5 6 7 7 7 7 7 7 8 8 8 8 9 9 8 8 6 5 4 4 3 3 4 4
4 4 6 5 4 5 4 5 5 5 6 6 7 5 6 3 3 3 4 4 4 5 5 5 5 5 6 7 7 7 7 7 7 8 7 7 5 4 4 3 3 3 3
3 3 3 3 3 3 3 3 3 3 4 4 4 5 8 4 3 3 3 3 3 2 2 2 3 4 5 4 4 4 5 6 7 7 7 7 5 4 3 3 4 3 3
3 4 4 3 4 5 4 4 3 3 3 3 4 3 3 2 3 2 2 3 2 3 3 3 3 3 3 3 3 2 3 4 5 5 6 6 5 3 3 3 3 4 4
4 4 5 5 5 5 4 4 5 7 7 5 4 4 3 3 3 2 2 2 2 2 2 1 1 0 3 3 3 3 3 3 4 5 6 5 4 4 3 4 3 3 3
4 4 4 4 4 3 4 5 6 6 7 8 8 6 5 4 3 3 4 3 3 2 4 3 3 3 2 3 4 5 6 8 6 7 4 5 5 6 4 3 3 3 4
5 6 5 4 5 5 4 3 4 5 7 7 8 8 8 9 8 6 6 3 3 3 4 3 3 5 4 4 4 4 6 6 6 8 5 4 5 4 3 4 5 3 3
Wind_Direction
7 1 356 354 349 344 344 338 335 329 333 327 322 315 314 307 251 228 231 226 218 217 207 213 212 202 194 196 202 195 201 188 189 199 174 187 187 204 207 200 198 196 200
7 3 358 357 359 357 353 347 346 341 337 334 332 328 327 331 323 238 227 219 211 212 207 210 219 216 206 195 185 183 204 210 187 162 174 180 198 204 212 199 198 204 207
3 8 4 5 5 5 360 356 358 350 346 346 344 341 340 344 340 334 283 231 220 218 213 209 211 199 186 171 171 185 206 204 215 159 171 177 187 193 193 184 187 170 174
7 7 7 10 5 9 1 6 5 360 357 354 354 348 346 349 349 334 317 289 277 232 215 213 211 209 212 186 176 216 237 221 198 193 152 160 169 178 190 169 148 113 143
8 13 11 1 5 4 2 5 7 8 8 4 357 354 357 358 354 341 307 332 339 263 192 177 174 173 194 211 203 211 201 196 183 180 163 156 180 169 195 157 169 103 56
19 15 13 9 5 3 11 15 8 7 9 8 7 5 5 4 355 9 6 42 40 358 61 95 51 75 76 106 95 79 199 174 179 179 168 198 195 186 180 169 125 147 205
22 16 14 6 6 7 9 9 11 12 10 7 3 4 15 12 11 13 23 47 50 33 20 12 34 34 50 69 92 92 64 58 60 183 181 189 183 188 164 163 181 177 179
29 21 15 11 9 5 8 17 13 11 10 7 10 8 15 19 18 16 17 36 48 43 33 13 22 24 16 0 31 85 75 59 47 55 62 68 23 307 241 196 185 110 61
28 22 18 16 13 9 11 9 17 14 6 6 8 9 14 15 21 22 24 26 37 47 45 24 31 24 26 10 26 41 97 66 68 77 71 55 39 10 204 132 145 150 122
26 21 22 17 21 16 12 5 10 27 12 3 10 13 11 11 18 26 27 24 33 31 36 28 39 32 36 34 31 18 13 59 63 48 37 31 22 22 20 293 168 181 127
5 29 24 20 25 17 15 17 16 20 18 15 12 10 12 12 14 27 29 27 25 26 30 30 32 34 45 42 38 26 43 350 51 66 53 42 23 18 24 11 21 137 140
21 25 28 24 18 17 20 19 24 24 25 18 15 13 12 15 16 20 27 31 26 30 28 23 28 31 43 47 47 34 39 11 16 56 60 43 33 16 15 32 31 57 49
26 25 20 26 16 20 22 25 26 23 24 22 19 14 12 13 16 18 17 24 24 29 27 33 31 33 34 33 40 36 38 29 28 37 42 47 26 4 7 24 48 70 65
31 27 21 17 24 19 26 34 31 25 23 18 14 15 11 14 19 17 16 14 14 18 17 23 26 30 32 28 32 26 24 27 31 40 23 30 20 32 22 6 48 67 76
27 21 12 12 10 18 33 35 39 31 34 21 17 24 18 18 16 24 23 23 23 16 20 25 23 21 21 19 21 25 21 20 21 19 34 20 36 35 30 1 42 55 78
22 19 21 25 22 24 27 32 37 42 39 36 30 43 28 28 21 22 26 30 30 28 31 27 25 20 17 13 14 14 19 12 14 14 23 30 28 32 33 32 42 64 81
31 35 35 31 26 27 26 34 32 17 34 35 35 30 37 28 27 25 26 30 31 32 38 27 23 17 14 11 8 9 10 5 7 12 11 19 25 27 27 38 39 56 58
32 32 37 29 24 22 21 22 27 31 21 8 8 29 35 33 31 31 29 28 26 29 32 22 16 12 11 10 7 7 3 3 9 11 11 11 11 19 31 36 45 56 57
33 21 23 17 22 20 16 12 15 6 356 341 335 352 1 36 35 34 33 38 28 22 22 23 15 10 8 2 2 1 5 6 6 8 6 7 2 8 19 29 50 54 51
30 33 39 28 21 21 16 17 18 11 8 2 358 340 338 22 17 12 21 16 27 25 16 18 14 7 3 3 2 4 6 9 5 1 358 359 358 15 23 36 46 57 56
26 24 23 28 20 14 14 21 15 12 7 7 10 1 360 27 1 9 15 18 15 12 9 10 5 2 5 3 9 6 8 2 360 354 349 348 350 10 6 26 43 53 76
23 8 20 14 21 18 6 15 4 6 12 6 341 352 5 13 1 353 11 5 333 337 352 34 15 1 8 5 357 360 3 358 353 351 343 338 341 358 13 24 31 35 38
40 25 8 10 0 4 3 351 353 342 330 331 333 343 338 343 349 328 3 309 323 343 342 34 23 357 345 353 351 8 18 345 322 327 334 331 341 6 19 43 34 35 34
38 33 33 28 31 20 5 359 355 360 346 328 324 315 308 313 326 319 256 281 324 305 287 260 257 201 318 339 345 344 341 315 324 326 334 333 350 5 31 54 44 43 41
46 44 40 36 23 0 358 8 21 8 5 4 353 332 315 313 314 310 301 270 268 304 294 260 242 234 245 304 337 350 339 353 354 349 351 9 24 24 19 36 39 47 40
50 47 45 32 28 19 12 18 7 1 3 2 357 13 19 10 358 340 318 292 309 317 310 279 245 255 240 259 280 336 354 356 1 8 7 19 28 17 25 36 50 45 46